Index of /20260430/WXO-DD/model_gdps/15km/00/219
Name Last modified Size Description
Parent Directory -
20260430T00Z_MSC_GDPS_AirTemp_AGL-120m_LatLon0.15_PT219H.grib2 2026-04-30 04:39 905K
20260430T00Z_MSC_GDPS_AirTemp_AGL-2m_LatLon0.15_PT219H.grib2 2026-04-30 04:39 1.0M
20260430T00Z_MSC_GDPS_AirTemp_AGL-40m_LatLon0.15_PT219H.grib2 2026-04-30 04:39 811K
20260430T00Z_MSC_GDPS_AirTemp_AGL-80m_LatLon0.15_PT219H.grib2 2026-04-30 04:39 915K
20260430T00Z_MSC_GDPS_AirTemp_IsbL-0001_LatLon0.15_PT219H.grib2 2026-04-30 04:39 664K
20260430T00Z_MSC_GDPS_AirTemp_IsbL-0005_LatLon0.15_PT219H.grib2 2026-04-30 04:39 686K
20260430T00Z_MSC_GDPS_AirTemp_IsbL-0500_LatLon0.15_PT219H.grib2 2026-04-30 04:39 1.0M
20260430T00Z_MSC_GDPS_AirTemp_IsbL-0700_LatLon0.15_PT219H.grib2 2026-04-30 04:39 947K
20260430T00Z_MSC_GDPS_AirTemp_IsbL-0850_LatLon0.15_PT219H.grib2 2026-04-30 04:39 1.1M
20260430T00Z_MSC_GDPS_AirTemp_IsbL-0925_LatLon0.15_PT219H.grib2 2026-04-30 04:39 1.1M
20260430T00Z_MSC_GDPS_AirTemp_IsbL-1000_LatLon0.15_PT219H.grib2 2026-04-30 04:39 1.1M
20260430T00Z_MSC_GDPS_Albedo_Sfc_LatLon0.15_PT219H.grib2 2026-04-30 04:39 242K
20260430T00Z_MSC_GDPS_ConvectivePrecip-Accum_Sfc_LatLon0.15_PT219H.grib2 2026-04-30 04:39 3.8M
20260430T00Z_MSC_GDPS_DewPointDepression_AGL-2m_LatLon0.15_PT219H.grib2 2026-04-30 04:39 764K
20260430T00Z_MSC_GDPS_DewPointDepression_IsbL-0500_LatLon0.15_PT219H.grib2 2026-04-30 04:39 1.0M
20260430T00Z_MSC_GDPS_DewPointDepression_IsbL-0700_LatLon0.15_PT219H.grib2 2026-04-30 04:39 1.1M
20260430T00Z_MSC_GDPS_DewPointDepression_IsbL-0850_LatLon0.15_PT219H.grib2 2026-04-30 04:39 1.2M
20260430T00Z_MSC_GDPS_DewPointDepression_IsbL-0925_LatLon0.15_PT219H.grib2 2026-04-30 04:39 1.0M
20260430T00Z_MSC_GDPS_DewPointDepression_IsbL-1000_LatLon0.15_PT219H.grib2 2026-04-30 04:39 966K
20260430T00Z_MSC_GDPS_DewPoint_AGL-2m_LatLon0.15_PT219H.grib2 2026-04-30 04:39 604K
20260430T00Z_MSC_GDPS_DownwardLongwaveRadiationFlux-Accum_Sfc_LatLon0.15_PT219H.grib2 2026-04-30 04:39 726K
20260430T00Z_MSC_GDPS_DownwardShortwaveRadiationFlux-Accum_Sfc_LatLon0.15_PT219H.grib2 2026-04-30 04:39 899K
20260430T00Z_MSC_GDPS_FreezingRain-Accum_Sfc_LatLon0.15_PT219H.grib2 2026-04-30 04:39 402K
20260430T00Z_MSC_GDPS_GeopotentialHeight_IsbL-0001_LatLon0.15_PT219H.grib2 2026-04-30 04:39 433K
20260430T00Z_MSC_GDPS_GeopotentialHeight_IsbL-0005_LatLon0.15_PT219H.grib2 2026-04-30 04:39 474K
20260430T00Z_MSC_GDPS_GeopotentialHeight_IsbL-0500_LatLon0.15_PT219H.grib2 2026-04-30 04:39 528K
20260430T00Z_MSC_GDPS_GeopotentialHeight_IsbL-0700_LatLon0.15_PT219H.grib2 2026-04-30 04:39 686K
20260430T00Z_MSC_GDPS_GeopotentialHeight_IsbL-0850_LatLon0.15_PT219H.grib2 2026-04-30 04:39 711K
20260430T00Z_MSC_GDPS_GeopotentialHeight_IsbL-0925_LatLon0.15_PT219H.grib2 2026-04-30 04:39 734K
20260430T00Z_MSC_GDPS_GeopotentialHeight_IsbL-1000_LatLon0.15_PT219H.grib2 2026-04-30 04:39 786K
20260430T00Z_MSC_GDPS_IcePellets-Accum_Sfc_LatLon0.15_PT219H.grib2 2026-04-30 04:39 136K
20260430T00Z_MSC_GDPS_LatentHeatNetFlux_Sfc_LatLon0.15_PT219H.grib2 2026-04-30 04:39 688K
20260430T00Z_MSC_GDPS_NetLongwaveRadiationFlux-Accum_Sfc_LatLon0.15_PT219H.grib2 2026-04-30 04:39 922K
20260430T00Z_MSC_GDPS_NetShortwaveRadiationFlux-Accum_Sfc_LatLon0.15_PT219H.grib2 2026-04-30 04:39 879K
20260430T00Z_MSC_GDPS_O3MixingRatio_Sfc_LatLon0.15_PT219H.grib2 2026-04-30 04:51 1.9M
20260430T00Z_MSC_GDPS_O3_EAtm_LatLon0.15_PT219H.grib2 2026-04-30 04:51 2.4M
20260430T00Z_MSC_GDPS_PlanetaryBoundaryLayerHeight_Sfc_LatLon0.15_PT219H.grib2 2026-04-30 04:39 2.4M
20260430T00Z_MSC_GDPS_Precip-Accum_Sfc_LatLon0.15_PT219H.grib2 2026-04-30 04:39 5.1M
20260430T00Z_MSC_GDPS_PrecipRate_Sfc_LatLon0.15_PT219H.grib2 2026-04-30 04:39 3.1M
20260430T00Z_MSC_GDPS_Pressure_MSL_LatLon0.15_PT219H.grib2 2026-04-30 04:39 718K
20260430T00Z_MSC_GDPS_Pressure_Sfc_LatLon0.15_PT219H.grib2 2026-04-30 04:39 1.1M
20260430T00Z_MSC_GDPS_RadiativeTemp_Sfc_LatLon0.15_PT219H.grib2 2026-04-30 04:39 667K
20260430T00Z_MSC_GDPS_Rain-Accum_Sfc_LatLon0.15_PT219H.grib2 2026-04-30 04:39 4.0M
20260430T00Z_MSC_GDPS_RelativeHumidity_AGL-2m_LatLon0.15_PT219H.grib2 2026-04-30 04:39 1.0M
20260430T00Z_MSC_GDPS_Runoff-Accum_Sfc_LatLon0.15_PT219H.grib2 2026-04-30 04:39 136K
20260430T00Z_MSC_GDPS_SensibleHeatNetFlux_Sfc_LatLon0.15_PT219H.grib2 2026-04-30 04:39 624K
20260430T00Z_MSC_GDPS_Snow-Accum_Sfc_LatLon0.15_PT219H.grib2 2026-04-30 04:39 2.1M
20260430T00Z_MSC_GDPS_SnowDepth_Sfc_LatLon0.15_PT219H.grib2 2026-04-30 04:39 1.7M
20260430T00Z_MSC_GDPS_SoilTemp_DBS-0to10cm_LatLon0.15_PT219H.grib2 2026-04-30 04:39 513K
20260430T00Z_MSC_GDPS_SoilTemp_Sfc_LatLon0.15_PT219H.grib2 2026-04-30 04:39 573K
20260430T00Z_MSC_GDPS_SoilVolumetricWaterContent_DBS-0to10cm_LatLon0.15_PT219H.grib2 2026-04-30 04:39 595K
20260430T00Z_MSC_GDPS_SoilVolumetricWaterContent_DBS-0to1cm_LatLon0.15_PT219H.grib2 2026-04-30 04:39 650K
20260430T00Z_MSC_GDPS_SpecificHumidity_AGL-120m_LatLon0.15_PT219H.grib2 2026-04-30 04:39 1.1M
20260430T00Z_MSC_GDPS_SpecificHumidity_AGL-2m_LatLon0.15_PT219H.grib2 2026-04-30 04:39 1.2M
20260430T00Z_MSC_GDPS_SpecificHumidity_AGL-40m_LatLon0.15_PT219H.grib2 2026-04-30 04:39 1.1M
20260430T00Z_MSC_GDPS_SpecificHumidity_AGL-80m_LatLon0.15_PT219H.grib2 2026-04-30 04:39 1.1M
20260430T00Z_MSC_GDPS_SpecificHumidity_IsbL-0001_LatLon0.15_PT219H.grib2 2026-04-30 04:39 1.1M
20260430T00Z_MSC_GDPS_SpecificHumidity_IsbL-0005_LatLon0.15_PT219H.grib2 2026-04-30 04:39 1.0M
20260430T00Z_MSC_GDPS_SpecificHumidity_IsbL-0500_LatLon0.15_PT219H.grib2 2026-04-30 04:39 1.5M
20260430T00Z_MSC_GDPS_SpecificHumidity_IsbL-0700_LatLon0.15_PT219H.grib2 2026-04-30 04:39 1.6M
20260430T00Z_MSC_GDPS_SpecificHumidity_IsbL-0850_LatLon0.15_PT219H.grib2 2026-04-30 04:39 2.0M
20260430T00Z_MSC_GDPS_SpecificHumidity_IsbL-0925_LatLon0.15_PT219H.grib2 2026-04-30 04:39 1.6M
20260430T00Z_MSC_GDPS_SpecificHumidity_IsbL-1000_LatLon0.15_PT219H.grib2 2026-04-30 04:39 1.5M
20260430T00Z_MSC_GDPS_SpecificHumidity_Sfc_LatLon0.15_PT219H.grib2 2026-04-30 04:39 647K
20260430T00Z_MSC_GDPS_Thickness_IsbL-0850to0700_LatLon0.15_PT219H.grib2 2026-04-30 04:39 466K
20260430T00Z_MSC_GDPS_Thickness_IsbL-1000to0500_LatLon0.15_PT219H.grib2 2026-04-30 04:39 367K
20260430T00Z_MSC_GDPS_Thickness_IsbL-1000to0850_LatLon0.15_PT219H.grib2 2026-04-30 04:39 487K
20260430T00Z_MSC_GDPS_TotalCloudCover_Sfc_LatLon0.15_PT219H.grib2 2026-04-30 04:39 833K
20260430T00Z_MSC_GDPS_UVIndex-ClearSky_Sfc_LatLon0.15_PT219H.grib2 2026-04-30 04:51 1.0M
20260430T00Z_MSC_GDPS_UVIndex_Sfc_LatLon0.15_PT219H.grib2 2026-04-30 04:51 1.5M
20260430T00Z_MSC_GDPS_UpwardLongwaveRadiationFlux_NTAtm_LatLon0.15_PT219H.grib2 2026-04-30 04:39 1.1M
20260430T00Z_MSC_GDPS_VerticalVelocity_IsbL-0500_LatLon0.15_PT219H.grib2 2026-04-30 04:39 1.2M
20260430T00Z_MSC_GDPS_VerticalVelocity_IsbL-0700_LatLon0.15_PT219H.grib2 2026-04-30 04:39 1.4M
20260430T00Z_MSC_GDPS_VerticalVelocity_IsbL-0850_LatLon0.15_PT219H.grib2 2026-04-30 04:39 1.3M
20260430T00Z_MSC_GDPS_WindDir_AGL-10m_LatLon0.15_PT219H.grib2 2026-04-30 04:39 1.3M
20260430T00Z_MSC_GDPS_WindDir_AGL-120m_LatLon0.15_PT219H.grib2 2026-04-30 04:39 1.3M
20260430T00Z_MSC_GDPS_WindDir_AGL-40m_LatLon0.15_PT219H.grib2 2026-04-30 04:39 1.4M
20260430T00Z_MSC_GDPS_WindDir_AGL-80m_LatLon0.15_PT219H.grib2 2026-04-30 04:39 1.3M
20260430T00Z_MSC_GDPS_WindDir_IsbL-0001_LatLon0.15_PT219H.grib2 2026-04-30 04:39 669K
20260430T00Z_MSC_GDPS_WindDir_IsbL-0005_LatLon0.15_PT219H.grib2 2026-04-30 04:39 816K
20260430T00Z_MSC_GDPS_WindDir_IsbL-0500_LatLon0.15_PT219H.grib2 2026-04-30 04:39 1.3M
20260430T00Z_MSC_GDPS_WindDir_IsbL-0700_LatLon0.15_PT219H.grib2 2026-04-30 04:39 1.6M
20260430T00Z_MSC_GDPS_WindDir_IsbL-0850_LatLon0.15_PT219H.grib2 2026-04-30 04:39 1.9M
20260430T00Z_MSC_GDPS_WindDir_IsbL-0925_LatLon0.15_PT219H.grib2 2026-04-30 04:39 1.9M
20260430T00Z_MSC_GDPS_WindDir_IsbL-1000_LatLon0.15_PT219H.grib2 2026-04-30 04:39 2.0M
20260430T00Z_MSC_GDPS_WindGust-Max_AGL-10m_LatLon0.15_PT219H.grib2 2026-04-30 04:39 2.2M
20260430T00Z_MSC_GDPS_WindGust-Min_AGL-10m_LatLon0.15_PT219H.grib2 2026-04-30 04:39 2.1M
20260430T00Z_MSC_GDPS_WindGust_AGL-10m_LatLon0.15_PT219H.grib2 2026-04-30 04:39 2.1M
20260430T00Z_MSC_GDPS_WindSpeed_AGL-10m_LatLon0.15_PT219H.grib2 2026-04-30 04:39 1.1M
20260430T00Z_MSC_GDPS_WindSpeed_AGL-120m_LatLon0.15_PT219H.grib2 2026-04-30 04:39 1.2M
20260430T00Z_MSC_GDPS_WindSpeed_AGL-40m_LatLon0.15_PT219H.grib2 2026-04-30 04:39 1.2M
20260430T00Z_MSC_GDPS_WindSpeed_AGL-80m_LatLon0.15_PT219H.grib2 2026-04-30 04:39 1.2M
20260430T00Z_MSC_GDPS_WindSpeed_IsbL-0001_LatLon0.15_PT219H.grib2 2026-04-30 04:39 649K
20260430T00Z_MSC_GDPS_WindSpeed_IsbL-0005_LatLon0.15_PT219H.grib2 2026-04-30 04:39 685K
20260430T00Z_MSC_GDPS_WindSpeed_IsbL-0500_LatLon0.15_PT219H.grib2 2026-04-30 04:39 1.1M
20260430T00Z_MSC_GDPS_WindSpeed_IsbL-0700_LatLon0.15_PT219H.grib2 2026-04-30 04:39 1.5M
20260430T00Z_MSC_GDPS_WindSpeed_IsbL-0850_LatLon0.15_PT219H.grib2 2026-04-30 04:39 1.7M
20260430T00Z_MSC_GDPS_WindSpeed_IsbL-0925_LatLon0.15_PT219H.grib2 2026-04-30 04:39 1.8M
20260430T00Z_MSC_GDPS_WindSpeed_IsbL-1000_LatLon0.15_PT219H.grib2 2026-04-30 04:39 1.8M
20260430T00Z_MSC_GDPS_WindU_AGL-10m_LatLon0.15_PT219H.grib2 2026-04-30 04:39 1.3M
20260430T00Z_MSC_GDPS_WindU_AGL-120m_LatLon0.15_PT219H.grib2 2026-04-30 04:39 1.0M
20260430T00Z_MSC_GDPS_WindU_AGL-40m_LatLon0.15_PT219H.grib2 2026-04-30 04:39 955K
20260430T00Z_MSC_GDPS_WindU_AGL-80m_LatLon0.15_PT219H.grib2 2026-04-30 04:39 961K
20260430T00Z_MSC_GDPS_WindU_IsbL-0001_LatLon0.15_PT219H.grib2 2026-04-30 04:39 504K
20260430T00Z_MSC_GDPS_WindU_IsbL-0005_LatLon0.15_PT219H.grib2 2026-04-30 04:39 681K
20260430T00Z_MSC_GDPS_WindU_IsbL-0500_LatLon0.15_PT219H.grib2 2026-04-30 04:39 1.1M
20260430T00Z_MSC_GDPS_WindU_IsbL-0700_LatLon0.15_PT219H.grib2 2026-04-30 04:39 1.2M
20260430T00Z_MSC_GDPS_WindU_IsbL-0850_LatLon0.15_PT219H.grib2 2026-04-30 04:39 1.4M
20260430T00Z_MSC_GDPS_WindU_IsbL-0925_LatLon0.15_PT219H.grib2 2026-04-30 04:39 1.5M
20260430T00Z_MSC_GDPS_WindU_IsbL-1000_LatLon0.15_PT219H.grib2 2026-04-30 04:39 1.4M
20260430T00Z_MSC_GDPS_WindV_AGL-10m_LatLon0.15_PT219H.grib2 2026-04-30 04:39 1.3M
20260430T00Z_MSC_GDPS_WindV_AGL-120m_LatLon0.15_PT219H.grib2 2026-04-30 04:39 1.0M
20260430T00Z_MSC_GDPS_WindV_AGL-40m_LatLon0.15_PT219H.grib2 2026-04-30 04:39 958K
20260430T00Z_MSC_GDPS_WindV_AGL-80m_LatLon0.15_PT219H.grib2 2026-04-30 04:39 1.0M
20260430T00Z_MSC_GDPS_WindV_IsbL-0001_LatLon0.15_PT219H.grib2 2026-04-30 04:39 714K
20260430T00Z_MSC_GDPS_WindV_IsbL-0005_LatLon0.15_PT219H.grib2 2026-04-30 04:39 847K
20260430T00Z_MSC_GDPS_WindV_IsbL-0500_LatLon0.15_PT219H.grib2 2026-04-30 04:39 1.1M
20260430T00Z_MSC_GDPS_WindV_IsbL-0700_LatLon0.15_PT219H.grib2 2026-04-30 04:39 1.2M
20260430T00Z_MSC_GDPS_WindV_IsbL-0850_LatLon0.15_PT219H.grib2 2026-04-30 04:39 1.4M
20260430T00Z_MSC_GDPS_WindV_IsbL-0925_LatLon0.15_PT219H.grib2 2026-04-30 04:39 1.4M
20260430T00Z_MSC_GDPS_WindV_IsbL-1000_LatLon0.15_PT219H.grib2 2026-04-30 04:39 1.4M